Location: Treviso
(45.6669°N, 12.2430°E)
Time: 01:08:49
(UTC+02:00)

CUBESAT XI-V - Pass Details

Date: 04 May 2019
Orbit: 668 x 694 km, 98.0° (Epoch: 25 May)

Event Time Altitude Azimuth Distance (km) Brightness Sun altitude
Exits shadow 04:56:07 13° 233° (SW) 1,935 ? -9.8°
Maximum altitude 04:58:32 18° 269° (W) 1,645 ? -9.4°
Drops below altitude 10° 05:01:44 10° 313° (NW) 2,128 ? -9.0°
Sets 05:04:38 0° 332° (NNW) 3,043 ? -8.6°
